Location: *
(49.4547°N, 7.9131°E)
Time: 07:05:56
(UTC+00:00)

Cosmos 1624 Rocket - Pass Details

Date: 22 September 2019
Orbit: 757 x 784 km, 74.0° (Epoch: 19 October)

Event Time Altitude Azimuth Distance (km) Brightness Sun altitude
Rises 19:18:09 0° 211° (SSW) 3,205 7.3 -18.4°
Reaches altitude 10° 19:20:32 10° 214° (SW) 2,283 6.6 -18.7°
Maximum altitude 19:25:40 64° 296° (WNW) 840 4.4 -19.5°
Drops below altitude 10° 19:30:50 10° 19° (NNE) 2,300 6.5 -20.3°
Sets 19:33:15 0° 22° (NNE) 3,231 7.3 -20.6°
